Location: Montreal
(45.5000°N, 73.5833°W)
Time: 23:49:58
(UTC-04:00)

ISS - Visible Passes

Search period start: 24 July 2024 00:00
Search period end: 03 August 2024 00:00
Orbit: 409 x 423 km, 51.6° (Epoch: 24 July)

Date Brightness Start Highest point End Pass type
(mag) Time Alt. Az. Time Alt. Az. Time Alt. Az.
24 Jul -3.8 21:39:06 10° WNW 21:42:25 85° SSW 21:44:46 18° ESE visible
24 Jul -1.1 23:17:00 10° WSW 23:17:38 12° WSW 23:17:38 12° WSW visible
25 Jul -2.1 22:27:39 10° W 22:30:16 22° SW 22:30:45 21° SSW visible
26 Jul -2.7 21:38:42 10° WNW 21:41:45 35° SW 21:43:53 16° SSE visible
28 Jul -1.4 21:38:49 10° W 21:40:45 15° SW 21:42:39 10° S visible
